This is the latest recevied weather packets stored in our database for station/object IW2HNF-3. If no packets are shown the sender has not sent any weather packets the latest 10 day(s).
| Time | Temp. | Humidity | Pressure | Rain* | Wind** | Luminosity | Snow |
|---|---|---|---|---|---|---|---|
| 1777911062 | 21.11° C | 36% | 1014.8 hPa | 0 mm | - | - | - |
| 1777910870 | 21.11° C | 36% | 1014.7 hPa | 0 mm | - | - | - |
| 1777909862 | 21.11° C | 36% | 1014.7 hPa | 0 mm | - | - | - |
| 1777909238 | 21.11° C | 35% | 1014.8 hPa | 0 mm | - | - | - |
| 1777908663 | 21.11° C | 35% | 1015 hPa | 0 mm | - | - | - |
| 1777908038 | 21.11° C | 35% | 1015 hPa | 0 mm | - | - | - |
| 1777907462 | 20.56° C | 35% | 1015 hPa | 0 mm | - | - | - |
| 1777906839 | 21.11° C | 35% | 1015.1 hPa | 0 mm | - | - | - |
| 1777906262 | 21.11° C | 34% | 1015.2 hPa | 0 mm | - | - | - |
| 1777905639 | 21.11° C | 34% | 1015.3 hPa | 0 mm | - | - | - |
| 1777905062 | 21.11° C | 34% | 1015.3 hPa | 0 mm | - | - | - |
| 1777904439 | 21.67° C | 32% | 1015.4 hPa | 0 mm | - | - | - |
| 1777903863 | 21.67° C | 32% | 1015.4 hPa | 0 mm | - | - | - |
| 1777903671 | 22.22° C | 31% | 1015.4 hPa | 0 mm | - | - | - |
| 1777902663 | 21.67° C | 31% | 1015.5 hPa | 0 mm | - | - | - |
| 1777902038 | 21.11° C | 32% | 1015.5 hPa | 0 mm | - | - | - |
| 1777901463 | 21.11° C | 33% | 1015.7 hPa | 0 mm | - | - | - |
| 1777900839 | 21.11° C | 34% | 1015.9 hPa | 0 mm | - | - | - |
| 1777900263 | 21.11° C | 34% | 1016 hPa | 0 mm | - | - | - |
| 1777899639 | 20.56° C | 34% | 1016.1 hPa | 0 mm | - | - | - |
| 1777899062 | 20° C | 35% | 1016.2 hPa | 0 mm | - | - | - |
| 1777898439 | 20.56° C | 35% | 1016.3 hPa | 0 mm | - | - | - |
| 1777897863 | 20.56° C | 35% | 1016.4 hPa | 0 mm | - | - | - |
| 1777897239 | 20.56° C | 35% | 1016.4 hPa | 0 mm | - | - | - |
| 1777896662 | 20° C | 35% | 1016.5 hPa | 0 mm | - | - | - |
* Rain latest hour (hover to see other rain measurements)
** Current wind speed in m/s (hover to see current wind gust speed)